Location: El Centro
(32.7920°N, 115.5620°W)
Time: 20:42:35
(UTC-08:00)

Amateur Radio Satellites - All Passes

Search period start: 18 January 2017 20:12
Search period end: 19 January 2017 20:12
Location: El Centro, 32.7920°N, 115.5620°W

Satellite Date Start Highest point End Downlink Frequencies (MHz)
Time Altitude Azimuth
STRAND 1 18 Jan 20:14:30 20:18:08 20° 293° (WNW) 20:21:46 437.568
SEEDS 18 Jan 20:15:54 20:17:00 11° 268° (W) 20:18:06 437.485
Oscar 11 18 Jan 20:18:24 20:22:37 59° 259° (W) 20:26:54 145.826/435.025
CUBEBUG 2 18 Jan 20:21:12 20:23:43 16° 265° (W) 20:26:14 437.445
COMPASS 1 18 Jan 20:23:58 20:26:00 13° 267° (W) 20:28:04 437.405
AIST 2 18 Jan 20:25:07 20:27:55 18° 308° (NW) 20:30:45 435.215
GONETS M04 18 Jan 20:26:20 20:34:41 51° 281° (W) 20:43:09
PRISM 18 Jan 20:31:12 20:34:53 31° 98° (E) 20:38:32 437.425
DELFI C3 18 Jan 20:33:33 20:37:28 62° 77° (ENE) 20:41:27 145.870
Cosmos 2499 18 Jan 20:37:17 20:44:43 33° 284° (WNW) 20:51:47 435.465 / 435.565
AAUSAT CUBESAT 2 18 Jan 20:37:38 20:39:17 12° 267° (W) 20:40:57 437.432
ANTELSAT 18 Jan 20:49:38 20:52:17 15° 94° (E) 20:54:55 437.575/2403.000
FUNcube-1 18 Jan 20:54:03 20:57:02 19° 265° (W) 21:00:01 145.935
CUBEBUG 1 18 Jan 21:41:03 21:43:01 13° 67° (ENE) 21:44:59 437.445
HUMSAT D 18 Jan 21:42:18 21:45:59 33° 262° (W) 21:49:43 437.325/437.525
SRMSAT 18 Jan 21:44:31 21:46:49 12° 197° (SSW) 21:49:07 437.500
AISAT 18 Jan 21:53:15 21:54:38 11° 66° (ENE) 21:56:01 437.250
UNISAT 6 18 Jan 21:55:56 22:00:23 83° 283° (WNW) 22:04:56 437.425
ISS 18 Jan 21:56:22 21:59:37 72° 316° (NW) 22:02:51 145.825
ESTCUBE 1 18 Jan 22:04:23 22:08:40 44° 74° (ENE) 22:12:59 437.505/2401.250
BY70-1 18 Jan 22:06:41 22:09:28 65° 258° (WSW) 22:12:32 436.1900
PRISM 18 Jan 22:07:24 22:09:52 16° 292° (WNW) 22:12:19 437.425
TIGRISAT 18 Jan 22:09:55 22:14:18 61° 284° (WNW) 22:18:46 435.000
QB50P1 18 Jan 22:13:35 22:13:54 10° 93° (E) 22:14:13 145.935-145.965
POLYITAN 1 18 Jan 22:16:05 22:17:31 11° 93° (E) 22:18:57 437.675
QB50P2 18 Jan 22:16:47 22:18:44 13° 94° (E) 22:20:40 145.880/145.840
RS-15 18 Jan 22:17:52 22:28:36 45° 107° (ESE) 22:39:47 29.354- 29.394
JAS-2 18 Jan 22:19:52 22:27:00 55° 100° (E) 22:34:37 435.910
VELOX 1 18 Jan 22:24:15 22:27:52 25° 71° (ENE) 22:31:30 145.980
ANTELSAT 18 Jan 22:24:56 22:29:02 38° 287° (WNW) 22:33:13 437.575/2403.000
AO-85 18 Jan 22:29:59 22:33:17 25° 56° (NE) 22:36:34 145.980
POPSAT HIP 1 18 Jan 22:37:37 22:40:51 21° 96° (E) 22:44:05 437.405
DUCHIFAT 1 18 Jan 22:50:27 22:53:59 26° 97° (E) 22:57:30 145.980
NANOSAT C BR1 18 Jan 22:54:49 22:58:37 33° 98° (E) 23:02:25 145.865
DX 1 18 Jan 23:02:00 23:05:52 31° 72° (ENE) 23:09:43 434.975-435.025
UKube-1 18 Jan 23:05:06 23:08:34 24° 70° (ENE) 23:12:03 .
SPROUT 18 Jan 23:05:41 23:09:49 54° 75° (ENE) 23:13:58 437.525
CUBEBUG 1 18 Jan 23:14:36 23:18:51 46° 260° (W) 23:23:06 437.445
50 SAT 18 Jan 23:16:27 23:20:00 83° 77° (ENE) 23:23:36 437.505
AISAT 18 Jan 23:26:13 23:30:34 54° 259° (W) 23:34:56 437.250
BUGSAT 1 18 Jan 23:32:17 23:35:43 26° 98° (E) 23:39:08 437.445
ESTCUBE 1 18 Jan 23:43:25 23:45:37 13° 267° (W) 23:47:49 437.505/2401.250
QB50P1 18 Jan 23:45:48 23:49:52 49° 286° (WNW) 23:53:56 145.935-145.965
PCSat 18 Jan 23:45:55 23:50:51 38° 109° (ESE) 23:55:49 145.827
POLYITAN 1 18 Jan 23:49:26 23:53:27 44° 286° (WNW) 23:57:29 437.675
QB50P2 18 Jan 23:50:41 23:54:37 39° 287° (WNW) 23:58:34 145.880/145.840
YUBILEINY 18 Jan 23:59:39 00:06:27 24° 72° (ENE) 00:13:11 435.215
VELOX 1 19 Jan 00:00:40 00:04:12 23° 264° (W) 00:07:45 145.980
JAS-2 19 Jan 00:05:47 00:11:35 27° 293° (WNW) 00:17:43 435.910
AO-85 19 Jan 00:10:44 00:13:27 18° 249° (WSW) 00:16:10 145.980
POPSAT HIP 1 19 Jan 00:13:07 00:16:30 24° 289° (WNW) 00:19:54 437.405
Cosmos 2504 19 Jan 00:25:43 00:29:10 14° 68° (ENE) 00:32:34 435.465 / 435.565
DUCHIFAT 1 19 Jan 00:26:25 00:29:27 20° 290° (WNW) 00:32:29 145.980
AIST 1 19 Jan 00:28:22 00:32:14 33° 79° (E) 00:36:05
RS-15 19 Jan 00:29:30 00:40:49 50° 307° (NW) 00:52:42 29.354- 29.394
NANOSAT C BR1 19 Jan 00:31:27 00:34:02 16° 291° (WNW) 00:36:36 145.865
BEESAT 19 Jan 00:33:07 00:35:26 14° 66° (ENE) 00:37:46 436.000
SWISSCUBE 19 Jan 00:34:00 00:36:50 16° 67° (ENE) 00:39:41 437.505
Oscar 19 19 Jan 00:38:37 00:43:26 38° 99° (E) 00:48:11 437.125/150
DX 1 19 Jan 00:39:05 00:42:02 18° 265° (W) 00:45:00 434.975-435.025
TISAT 1 19 Jan 00:39:39 00:43:50 87° 258° (WSW) 00:48:01 437.305
Gurwin Techsat 1B 19 Jan 00:39:54 00:43:44 20° 95° (E) 00:47:33 435.225
UKube-1 19 Jan 00:41:04 00:44:29 23° 263° (W) 00:47:54 .
Cosmos 2491 19 Jan 00:42:35 00:49:32 28° 84° (E) 00:56:30 435.465 / 435.565
BEESAT 3 19 Jan 00:46:43 00:49:52 22° 54° (NE) 00:53:00 437.485
BUGSAT 1 19 Jan 01:08:07 01:10:51 18° 290° (WNW) 01:13:35 437.445
PHONESAT 2.4 19 Jan 01:09:54 01:12:06 41° 150° (SSE) 01:14:17 2401.200-2431.200
BEESAT 2 19 Jan 01:27:35 01:31:01 26° 55° (NE) 01:34:25 435.950
PCSat 19 Jan 01:29:56 01:34:17 25° 304° (NW) 01:38:41 145.827
ITUPSAT 1 19 Jan 01:32:16 01:36:56 61° 75° (ENE) 01:41:39 437.325
YUBILEINY 19 Jan 01:55:06 02:03:43 61° 269° (W) 02:12:16 435.215
AUBIESAT-1 19 Jan 02:02:32 02:05:26 18° 66° (ENE) 02:08:14 437.475
AO-7 19 Jan 02:05:00 02:11:11 22° 96° (E) 02:17:18 29.400- 29.500
AIST 1 19 Jan 02:07:16 02:09:27 14° 273° (W) 02:11:38
BEESAT 19 Jan 02:08:08 02:12:44 51° 260° (W) 02:17:22 436.000
SWISSCUBE 19 Jan 02:09:43 02:14:12 43° 260° (W) 02:18:44 437.505
CUSAT 1 19 Jan 02:11:01 02:14:54 27° 85° (E) 02:19:42 437.405
Cosmos 2504 19 Jan 02:16:02 02:23:23 79° 266° (W) 02:30:30 435.465 / 435.565
MOZHAYETS 4 19 Jan 02:18:02 02:22:26 52° 75° (ENE) 02:26:54
Oscar 19 19 Jan 02:18:41 02:22:25 21° 293° (WNW) 02:26:08 437.125/150
Gurwin Techsat 1B 19 Jan 02:18:49 02:23:45 40° 288° (WNW) 02:28:40 435.225
BEESAT 3 19 Jan 02:24:09 02:27:23 24° 249° (WSW) 02:30:36 437.485
Cosmos 2491 19 Jan 02:37:25 02:45:48 52° 281° (W) 02:54:16 435.465 / 435.565
PHONESAT 2.4 19 Jan 02:44:25 02:46:17 21° 344° (NNW) 02:48:09 2401.200-2431.200
RS-15 19 Jan 02:50:54 02:57:27 15° 336° (NNW) 03:04:06 29.354- 29.394
ITAMSAT 1 19 Jan 02:56:44 03:01:57 88° 104° (ESE) 03:07:11 435.822/435.867
M-CUBED/EXP-1 PRIME 19 Jan 02:56:57 03:01:28 80° 254° (WSW) 03:05:44 437.505
CUBESAT XI-V 19 Jan 03:00:30 03:03:58 21° 69° (ENE) 03:07:29 437.345
BEESAT 2 19 Jan 03:05:37 03:08:37 20° 250° (WSW) 03:11:36 435.950
KKS-1 19 Jan 03:09:17 03:13:40 62° 75° (ENE) 03:18:04 437.445
ITUPSAT 1 19 Jan 03:14:24 03:15:05 10° 268° (W) 03:15:45 437.325
AUBIESAT-1 19 Jan 03:35:34 03:39:34 33° 257° (WSW) 03:43:24 437.475
CUSAT 1 19 Jan 03:52:41 03:56:40 26° 290° (WNW) 04:01:38 437.405
AO-7 19 Jan 03:56:06 04:04:22 66° 290° (WNW) 04:12:33 29.400- 29.500
MOZHAYETS 4 19 Jan 03:58:28 03:59:51 11° 268° (W) 04:01:13
STARS 19 Jan 04:06:52 04:11:13 63° 258° (WSW) 04:15:34 437.465
HORYU 2 19 Jan 04:15:44 04:18:35 17° 95° (E) 04:21:26 437.375
PHONESAT 2.4 19 Jan 04:19:51 04:20:54 12° 0° (N) 04:21:58 2401.200-2431.200
DANDE 19 Jan 04:28:23 04:31:31 33° 286° (WNW) 04:35:33 436.750
ISS 19 Jan 04:28:24 04:30:36 17° 34° (NNE) 04:32:47 145.825
BRITE-PL 19 Jan 04:32:59 04:37:48 69° 101° (E) 04:42:14 437.365/2234.400
CUBESAT XI-V 19 Jan 04:36:58 04:41:06 31° 263° (W) 04:45:17 437.345
Cubesat XI-IV 19 Jan 04:41:41 04:43:07 11° 92° (E) 04:44:34 437.490
GOMX 1 19 Jan 04:45:06 04:48:56 30° 97° (E) 04:52:37 467.674
AIST 2 19 Jan 04:48:47 04:53:02 81° 62° (ENE) 04:57:14 435.215
NOAA 15 19 Jan 04:54:22 04:57:47 17° 94° (E) 05:01:10 137.62
RS-15 19 Jan 05:13:24 05:18:09 13° 15° (NNE) 05:22:53 29.354- 29.394
DOVE 4 19 Jan 05:31:28 05:35:19 36° 98° (E) 05:39:08 437.250
CUTE-I 19 Jan 05:35:43 05:40:48 45° 100° (E) 05:45:53 437.470
STRAND 1 19 Jan 05:46:06 05:50:43 36° 71° (ENE) 05:55:21 437.568
LilacSat-2 19 Jan 05:46:39 05:50:31 76° 101° (E) 05:54:23 437.200
HORYU 2 19 Jan 05:51:08 05:55:10 34° 288° (WNW) 05:59:11 437.375
AO-7 19 Jan 05:53:13 05:55:31 11° 309° (NW) 05:57:48 29.400- 29.500
PHONESAT 2.4 19 Jan 05:53:36 05:55:30 22° 16° (NNE) 05:57:24 2401.200-2431.200
ISS 19 Jan 06:04:08 06:07:11 39° 229° (SW) 06:10:15 145.825
O/OREOS (USA 219) 19 Jan 06:09:34 06:14:01 71° 290° (WNW) 06:18:28 437.305
NOAA 18 19 Jan 06:10:53 06:16:11 51° 101° (E) 06:21:28 137.9125
CANX-2 19 Jan 06:12:40 06:14:53 14° 93° (E) 06:17:05 2200.000
Cubesat XI-IV 19 Jan 06:18:16 06:23:35 70° 285° (WNW) 06:28:53 437.490
GOMX 1 19 Jan 06:23:53 06:26:45 17° 292° (WNW) 06:29:32 467.674
SEEDS 19 Jan 06:27:53 06:28:53 11° 92° (E) 06:29:54 437.485
NOAA 15 19 Jan 06:32:39 06:37:43 46° 288° (WNW) 06:42:45 137.62
Cosmos 2499 19 Jan 06:32:55 06:40:00 69° 82° (E) 06:47:02 435.465 / 435.565
GONETS M04 19 Jan 06:41:36 06:50:24 66° 82° (E) 06:59:10
SO-50 19 Jan 06:56:04 07:00:27 39° 113° (ESE) 07:04:49 436.795
HO-68 19 Jan 06:58:57 07:05:52 49° 101° (E) 07:12:43 435.675
CINEMA 3 19 Jan 07:10:06 07:14:17 68° 283° (WNW) 07:18:34 145.822/145.860
UWE-3 19 Jan 07:10:34 07:12:55 14° 94° (E) 07:15:16 435.000/436.395/437.385
DOVE 4 19 Jan 07:10:38 07:12:40 13° 292° (WNW) 07:14:41 437.250
CUTE-I 19 Jan 07:16:48 07:20:27 19° 293° (WNW) 07:24:07 437.470
PRISM 19 Jan 07:17:36 07:19:41 14° 67° (ENE) 07:21:46 437.425
CUTE 1.7 + AOD 2 19 Jan 07:17:38 07:21:56 77° 101° (ESE) 07:26:12 437.475
RS-15 19 Jan 07:24:52 07:36:01 37° 47° (NE) 07:46:44 29.354- 29.394
STRAND 1 19 Jan 07:26:11 07:29:55 21° 265° (W) 07:33:40 437.568
PHONESAT 2.4 19 Jan 07:27:30 07:29:41 38° 211° (SSW) 07:31:51 2401.200-2431.200
ZACube-1 19 Jan 07:32:21 07:34:51 15° 94° (E) 07:37:21 437.345
CANX-2 19 Jan 07:46:50 07:50:49 38° 287° (WNW) 07:54:47 2200.000
NOAA 18 19 Jan 07:52:53 07:56:23 18° 295° (WNW) 07:59:53 137.9125
SEEDS 19 Jan 08:00:41 08:04:46 47° 286° (WNW) 08:08:50 437.485
COMPASS 1 19 Jan 08:08:38 08:12:47 60° 283° (WNW) 08:16:53 437.405
Oscar 11 19 Jan 08:10:05 08:14:04 34° 98° (E) 08:18:01 145.826/435.025
CUBEBUG 2 19 Jan 08:13:55 08:18:11 57° 284° (WNW) 08:22:35 437.445
DELFI C3 19 Jan 08:17:43 08:18:41 11° 93° (E) 08:19:40 145.870
AAUSAT CUBESAT 2 19 Jan 08:21:20 08:25:26 55° 284° (WNW) 08:29:29 437.432
Cosmos 2499 19 Jan 08:28:38 08:32:14 15° 278° (W) 08:35:50 435.465 / 435.565
SO-50 19 Jan 08:37:31 08:41:01 20° 308° (NW) 08:44:30 436.795
PCSat 19 Jan 08:39:41 08:42:19 13° 50° (NE) 08:44:55 145.827
GONETS M04 19 Jan 08:40:11 08:46:21 22° 278° (W) 08:52:32
FUNcube-1 19 Jan 08:44:30 08:48:55 80° 281° (W) 08:53:23 145.935
UWE-3 19 Jan 08:45:20 08:49:26 40° 286° (WNW) 08:53:37 435.000/436.395/437.385
HO-68 19 Jan 08:47:24 08:53:10 27° 296° (WNW) 08:58:55 435.675
UNISAT 6 19 Jan 08:50:27 08:54:32 47° 75° (ENE) 08:58:38 437.425
PRISM 19 Jan 08:50:41 08:54:35 38° 261° (W) 08:58:30 437.425
TIGRISAT 19 Jan 09:04:05 09:08:17 65° 77° (ENE) 09:12:29 435.000
ZACube-1 19 Jan 09:07:06 09:11:11 38° 286° (WNW) 09:15:20 437.345
ANTELSAT 19 Jan 09:18:55 09:23:11 76° 257° (WSW) 09:27:27 437.575/2403.000
HUMSAT D 19 Jan 09:29:17 09:33:28 50° 100° (E) 09:37:38 437.325/437.525
RS-15 19 Jan 09:37:09 09:49:09 63° 249° (WSW) 10:00:35 29.354- 29.394
DUCHIFAT 1 19 Jan 09:40:09 09:41:24 11° 67° (ENE) 09:42:40 145.980
NANOSAT C BR1 19 Jan 09:43:58 09:46:12 14° 68° (ENE) 09:48:27 145.865
Oscar 11 19 Jan 09:47:07 09:49:52 17° 291° (WNW) 09:52:38 145.826/435.025
DELFI C3 19 Jan 09:49:53 09:53:39 40° 285° (WNW) 09:57:21 145.870
ESTCUBE 1 19 Jan 10:02:58 10:05:07 13° 93° (E) 10:07:15 437.505/2401.250
JAS-2 19 Jan 10:13:09 10:18:21 81° 257° (WSW) 10:23:59 435.910
BUGSAT 1 19 Jan 10:20:05 10:21:05 11° 67° (ENE) 10:22:06 437.445
PCSat 19 Jan 10:20:51 10:26:17 77° 247° (WSW) 10:31:40 145.827
UNISAT 6 19 Jan 10:30:34 10:31:27 11° 267° (W) 10:32:21 437.425
QB50P1 19 Jan 10:33:19 10:37:27 65° 76° (ENE) 10:41:37 145.935-145.965
POLYITAN 1 19 Jan 10:37:04 10:41:14 73° 75° (ENE) 10:45:24 437.675
QB50P2 19 Jan 10:38:13 10:42:25 82° 78° (ENE) 10:46:38 145.880/145.840
BY70-1 19 Jan 10:45:52 10:49:10 66° 282° (WNW) 10:52:13 436.1900
SPROUT 19 Jan 10:57:36 10:59:31 13° 94° (E) 11:01:26 437.525
POPSAT HIP 1 19 Jan 11:00:09 11:04:17 58° 260° (W) 11:08:25 437.405
HUMSAT D 19 Jan 11:07:15 11:08:34 11° 293° (WNW) 11:09:55 437.325/437.525
CUBEBUG 1 19 Jan 11:07:28 11:11:35 42° 99° (E) 11:15:40 437.445
DUCHIFAT 1 19 Jan 11:12:37 11:16:37 47° 260° (W) 11:20:38 145.980
NANOSAT C BR1 19 Jan 11:17:42 11:21:34 36° 262° (W) 11:25:27 145.865
AISAT 19 Jan 11:20:45 11:24:50 38° 99° (E) 11:28:53 437.250
ESTCUBE 1 19 Jan 11:37:46 11:42:04 44° 287° (WNW) 11:46:22 437.505/2401.250
Oscar 19 19 Jan 11:51:03 11:55:46 36° 71° (ENE) 12:00:30 437.125/150
BUGSAT 1 19 Jan 11:52:04 11:56:01 46° 260° (W) 11:59:55 437.445
VELOX 1 19 Jan 11:53:58 11:58:22 88° 283° (WNW) 12:02:44 145.980
Gurwin Techsat 1B 19 Jan 11:56:50 12:00:47 22° 67° (ENE) 12:04:44 435.225
50 SAT 19 Jan 12:19:28 12:22:51 42° 285° (WNW) 12:26:11 437.505
TISAT 1 19 Jan 12:28:38 12:31:39 19° 96° (E) 12:34:40 437.305
DX 1 19 Jan 12:29:56 12:34:16 73° 283° (WNW) 12:38:33 434.975-435.025
UKube-1 19 Jan 12:31:19 12:35:38 82° 102° (ESE) 12:39:55 .
SPROUT 19 Jan 12:31:35 12:35:33 40° 286° (WNW) 12:39:32 437.525
AO-85 19 Jan 12:39:28 12:43:41 29° 113° (ESE) 12:47:38 145.980
CUBEBUG 1 19 Jan 12:45:26 12:47:26 13° 293° (WNW) 12:49:27 437.445
CUSAT 1 19 Jan 12:47:55 12:54:07 24° 70° (ENE) 12:59:55 437.405
JUGNU 19 Jan 12:49:39 12:52:27 14° 165° (SSE) 12:55:15 437.505
Cosmos 2491 19 Jan 12:52:49 13:01:34 65° 82° (E) 13:10:17 435.465 / 435.565
AIST 1 19 Jan 12:53:06 12:56:41 25° 90° (E) 13:00:18
YUBILEINY 19 Jan 12:54:45 13:02:13 32° 85° (E) 13:09:43 435.215
AISAT 19 Jan 12:58:24 13:00:56 15° 292° (WNW) 13:03:26 437.250
Cosmos 2504 19 Jan 12:58:37 13:03:19 16° 81° (E) 13:07:53 435.465 / 435.565
AO-7 19 Jan 12:59:55 13:05:58 23° 58° (ENE) 13:12:01 29.400- 29.500
DANDE 19 Jan 13:26:38 13:31:52 19° 70° (ENE) 13:37:14 436.750
Oscar 19 19 Jan 13:31:12 13:35:06 21° 265° (W) 13:39:01 437.125/150
Gurwin Techsat 1B 19 Jan 13:35:30 13:40:25 38° 261° (W) 13:45:21 435.225
ITUPSAT 1 19 Jan 13:37:50 13:41:35 22° 96° (E) 13:45:20 437.325
TISAT 1 19 Jan 14:03:45 14:07:13 26° 289° (WNW) 14:10:40 437.305
ITAMSAT 1 19 Jan 14:10:11 14:15:21 86° 76° (ENE) 14:20:32 435.822/435.867
BEESAT 19 Jan 14:12:25 14:17:08 57° 101° (E) 14:21:49 436.000
SWISSCUBE 19 Jan 14:13:54 14:18:41 67° 102° (ESE) 14:23:26 437.505
MOZHAYETS 4 19 Jan 14:18:25 14:21:32 18° 94° (E) 14:24:39
AO-85 19 Jan 14:20:06 14:24:02 25° 304° (NW) 14:27:45 145.980
CUSAT 1 19 Jan 14:28:42 14:36:32 62° 267° (W) 14:43:36 437.405
AIST 1 19 Jan 14:30:58 14:34:11 20° 283° (WNW) 14:37:25
JUGNU 19 Jan 14:36:25 14:40:47 22° 174° (S) 14:45:11 437.505
Cosmos 2504 19 Jan 14:46:53 14:55:43 84° 276° (W) 15:04:06 435.465 / 435.565
AO-7 19 Jan 14:49:35 14:57:54 71° 255° (WSW) 15:06:17 29.400- 29.500
YUBILEINY 19 Jan 14:50:18 14:58:37 46° 282° (WNW) 15:07:02 435.215
Cosmos 2491 19 Jan 14:51:22 14:57:32 22° 278° (W) 15:03:43 435.465 / 435.565
KKS-1 19 Jan 15:05:47 15:08:36 17° 95° (E) 15:11:24 437.445
DANDE 19 Jan 15:07:10 15:15:10 85° 264° (W) 15:23:31 436.750
ITUPSAT 1 19 Jan 15:15:11 15:19:21 30° 289° (WNW) 15:23:31 437.325
BEESAT 2 19 Jan 15:16:39 15:18:20 12° 108° (ESE) 15:20:03 435.950
AUBIESAT-1 19 Jan 15:18:56 15:21:12 17° 101° (E) 15:23:26 437.475
SO-50 19 Jan 15:33:36 15:35:09 12° 47° (NE) 15:36:41 436.795
BRITE-PL 19 Jan 15:37:36 15:43:05 52° 74° (ENE) 15:48:35 437.365/2234.400
GOMX 1 19 Jan 15:47:55 15:52:20 26° 71° (ENE) 15:56:39 467.674
BEESAT 19 Jan 15:52:22 15:54:22 13° 295° (WNW) 15:56:22 436.000
MOZHAYETS 4 19 Jan 15:54:30 15:58:44 35° 288° (WNW) 16:02:56
SWISSCUBE 19 Jan 15:54:50 15:55:50 11° 296° (WNW) 15:56:50 437.505
Cubesat XI-IV 19 Jan 15:59:13 16:01:36 13° 64° (ENE) 16:04:00 437.490
STARS 19 Jan 16:00:48 16:04:41 31° 98° (E) 16:08:34 437.465
SRMSAT 19 Jan 16:04:18 16:08:12 18° 169° (SSE) 16:12:05 437.500
BEESAT 3 19 Jan 16:09:15 16:12:59 48° 301° (WNW) 16:16:47 437.485
NOAA 15 19 Jan 16:10:19 16:13:53 19° 66° (ENE) 16:17:28 137.62
M-CUBED/EXP-1 PRIME 19 Jan 16:15:00 16:18:10 43° 290° (WNW) 16:21:15 437.505
O/OREOS (USA 219) 19 Jan 16:23:51 16:28:22 79° 251° (WSW) 16:32:52 437.305
JUGNU 19 Jan 16:24:44 16:29:12 22° 185° (S) 16:33:41 437.505
LilacSat-2 19 Jan 16:25:07 16:27:46 19° 71° (ENE) 16:30:26 437.200
DOVE 4 19 Jan 16:32:06 16:36:19 27° 72° (ENE) 16:40:21 437.250
CUBESAT XI-V 19 Jan 16:37:15 16:41:58 89° 283° (WNW) 16:46:37 437.345
KKS-1 19 Jan 16:41:12 16:45:12 34° 288° (WNW) 16:49:10 437.445
HORYU 2 19 Jan 16:44:04 16:48:26 66° 258° (WSW) 16:52:49 437.375
Cosmos 2504 19 Jan 16:46:14 16:50:03 13° 292° (WNW) 16:53:48 435.465 / 435.565
BEESAT 2 19 Jan 16:52:03 16:55:43 38° 302° (WNW) 16:59:28 435.950
DANDE 19 Jan 16:52:58 16:56:56 15° 277° (W) 17:01:00 436.750
CUTE-I 19 Jan 16:53:08 16:58:11 47° 73° (ENE) 17:03:16 437.470
AUBIESAT-1 19 Jan 16:53:17 16:55:31 17° 294° (WNW) 16:57:43 437.475
SO-50 19 Jan 17:11:36 17:16:04 69° 243° (WSW) 17:20:29 436.795
BRITE-PL 19 Jan 17:17:59 17:21:42 18° 267° (W) 17:25:28 437.365/2234.400
HO-68 19 Jan 17:23:58 17:29:23 24° 63° (ENE) 17:34:49 435.675
GOMX 1 19 Jan 17:25:18 17:30:11 33° 263° (W) 17:34:57 467.674
NOAA 18 19 Jan 17:32:40 17:38:06 64° 74° (ENE) 17:43:32 137.9125
Cubesat XI-IV 19 Jan 17:35:47 17:41:03 65° 258° (WSW) 17:46:21 437.490
STARS 19 Jan 17:37:48 17:40:46 18° 291° (WNW) 17:43:44 437.465
GONETS M04 19 Jan 17:46:35 17:49:52 13° 78° (ENE) 17:53:11
NOAA 15 19 Jan 17:48:13 17:53:15 45° 260° (W) 17:58:20 137.62
SRMSAT 19 Jan 17:52:07 17:56:45 23° 179° (S) 18:01:24 437.500
LilacSat-2 19 Jan 17:58:59 18:01:53 21° 264° (W) 18:04:49 437.200
STRAND 1 19 Jan 18:01:50 18:05:17 18° 95° (E) 18:08:42 437.568
CUTE 1.7 + AOD 2 19 Jan 18:06:01 18:09:41 29° 72° (ENE) 18:13:24 437.475
CINEMA 3 19 Jan 18:07:00 18:11:27 61° 76° (ENE) 18:15:43 145.822/145.860
DOVE 4 19 Jan 18:09:33 18:13:51 27° 263° (W) 18:17:59 437.250
JUGNU 19 Jan 18:14:22 18:17:35 15° 194° (SSW) 18:20:49 437.505
CANX-2 19 Jan 18:34:25 18:38:39 82° 75° (ENE) 18:42:55 2200.000
CUTE-I 19 Jan 18:35:05 18:38:24 17° 266° (W) 18:41:45 437.470
AIST 2 19 Jan 18:41:52 18:45:47 48° 114° (ESE) 18:49:47 435.215
SEEDS 19 Jan 18:47:20 18:51:29 63° 76° (ENE) 18:55:40 437.485
COMPASS 1 19 Jan 18:54:28 18:58:29 47° 75° (ENE) 19:02:32 437.405
Oscar 11 19 Jan 19:01:40 19:04:14 16° 68° (ENE) 19:06:48 145.826/435.025
Cosmos 2499 19 Jan 19:02:35 19:11:05 67° 93° (E) 19:19:01 435.465 / 435.565
AAUSAT CUBESAT 2 19 Jan 19:06:36 19:10:36 50° 75° (ENE) 19:14:40 437.432
CUBEBUG 2 19 Jan 19:07:30 19:11:39 65° 77° (ENE) 19:15:46 437.445
HO-68 19 Jan 19:09:32 19:16:34 57° 258° (WSW) 19:23:39 435.675
NOAA 18 19 Jan 19:16:37 19:19:05 13° 267° (W) 19:21:34 137.9125
FUNcube-1 19 Jan 19:35:43 19:39:36 42° 74° (ENE) 19:43:30 145.935
GONETS M04 19 Jan 19:36:35 19:45:17 86° 95° (E) 19:54:04
UWE-3 19 Jan 19:37:35 19:41:44 88° 257° (WSW) 19:45:53 435.000/436.395/437.385
STRAND 1 19 Jan 19:39:44 19:44:33 42° 288° (WNW) 19:49:23 437.568
SRMSAT 19 Jan 19:41:06 19:45:20 20° 189° (S) 19:49:35 437.500
CUTE 1.7 + AOD 2 19 Jan 19:42:41 19:45:30 17° 266° (W) 19:48:21 437.475
ZACube-1 19 Jan 19:58:05 20:02:13 88° 264° (W) 20:06:22 437.345
